This is the latest recevied weather packets stored in our database for station/object KJ6APE. If no packets are shown the sender has not sent any weather packets the latest 1 day(s).
| Time | Temp. | Humidity | Pressure | Rain* | Wind** | Luminosity | Snow |
|---|---|---|---|---|---|---|---|
| 1778031526 | 16.67° C | 70% | 1015.9 hPa | 0 mm | 0 m/s | 75 W/m² | - |
| 1778031224 | 16.67° C | 69% | 1015.6 hPa | 0 mm | 0.45 m/s, 127° | 107 W/m² | - |
| 1778030920 | 16.67° C | 69% | 1015.7 hPa | 0 mm | 0.45 m/s, 194° | 127 W/m² | - |
| 1778030617 | 16.67° C | 68% | 1015.6 hPa | 0 mm | 0.89 m/s, 183° | 137 W/m² | - |
| 1778030314 | 16.67° C | 69% | 1015.9 hPa | 0 mm | 0.89 m/s, 180° | 144 W/m² | - |
| 1778030011 | 16.67° C | 69% | 1015.8 hPa | 0 mm | 1.34 m/s, 164° | 136 W/m² | - |
| 1778029708 | 17.22° C | 69% | 1015.8 hPa | 0 mm | 1.34 m/s, 141° | 127 W/m² | - |
| 1778029406 | 17.22° C | 68% | 1015.7 hPa | 0 mm | 1.34 m/s, 139° | 140 W/m² | - |
| 1778029103 | 17.78° C | 68% | 1015.6 hPa | 0 mm | 0.45 m/s, 153° | 162 W/m² | - |
| 1778028800 | 17.78° C | 66% | 1015.7 hPa | 0 mm | 0.89 m/s, 160° | 209 W/m² | - |
| 1778028496 | 18.33° C | 66% | 1015.5 hPa | 0 mm | 0.89 m/s, 110° | 226 W/m² | - |
| 1778028193 | 17.78° C | 68% | 1015.7 hPa | 0 mm | 0.45 m/s, 80° | 299 W/m² | - |
| 1778027889 | 17.78° C | 67% | 1015.6 hPa | 0 mm | 0.89 m/s, 141° | 273 W/m² | - |
| 1778027586 | 17.78° C | 66% | 1015.5 hPa | 0 mm | 2.68 m/s, 149° | 396 W/m² | - |
| 1778027282 | 17.78° C | 67% | 1015.4 hPa | 0 mm | 1.34 m/s, 82° | 367 W/m² | - |
| 1778026979 | 17.78° C | 67% | 1015.5 hPa | 0 mm | 1.79 m/s, 183° | 415 W/m² | - |
| 1778026674 | 17.78° C | 68% | 1015.5 hPa | 0 mm | 0.89 m/s, 102° | 328 W/m² | - |
| 1778026372 | 17.78° C | 68% | 1015.5 hPa | 0 mm | 0.89 m/s, 170° | 296 W/m² | - |
| 1778026069 | 17.78° C | 68% | 1015.3 hPa | 0 mm | 0.89 m/s, 169° | 262 W/m² | - |
| 1778025766 | 17.78° C | 67% | 1015.4 hPa | 0 mm | 1.34 m/s, 183° | 238 W/m² | - |
| 1778025463 | 17.78° C | 67% | 1015.5 hPa | 0 mm | 1.34 m/s, 49° | 186 W/m² | - |
| 1778025161 | 17.78° C | 67% | 1015.4 hPa | 0 mm | 1.34 m/s, 149° | 164 W/m² | - |
| 1778024857 | 17.78° C | 67% | 1015.4 hPa | 0 mm | 0.45 m/s, 144° | 234 W/m² | - |
| 1778024555 | 17.78° C | 66% | 1015.3 hPa | 0 mm | 2.24 m/s, 169° | 254 W/m² | - |
| 1778024251 | 17.78° C | 66% | 1015.5 hPa | 0 mm | 1.34 m/s, 141° | 236 W/m² | - |
* Rain latest hour (hover to see other rain measurements)
** Current wind speed in m/s (hover to see current wind gust speed)